• MPC Preparation (Info)

  • MPEC 2016-N96 : 2016 NJ33

    The following Minor Planet Electronic Circular may be linked-to from your own Web pages, but must not otherwise be redistributed electronically.

    A form allowing access to any MPEC is at the bottom of this page.


    Read MPEC 2016-N95 Read MPEC 2016-N97


    M.P.E.C. 2016-N96                                Issued 2016 July 14, 15:34 UT
    
         The Minor Planet Electronic Circulars contain information on unusual
             minor planets and routine data on comets.  They are published
        on behalf of Division F of the International Astronomical Union by the
              Minor Planet Center, Smithsonian Astrophysical Observatory,
                              Cambridge, MA 02138, U.S.A.
    
                 Prepared using the Tamkin Foundation Computer Network
    
                                  MPC@CFA.HARVARD.EDU
                URL https://www.minorplanetcenter.net/    ISSN 1523-6714
    
                                       2016 NJ33
    
    Observations:
         K16N33J* C2016 07 12.22372 17 10 20.48 +07 29 53.8          19.4 VqEN096G96
         K16N33J  C2016 07 12.22954 17 10 22.48 +07 31 07.8          19.6 VqEN096G96
         K16N33J  C2016 07 12.23545 17 10 24.42 +07 32 22.8          19.9 VqEN096G96
         K16N33J  C2016 07 12.24133 17 10 26.39 +07 33 36.5          20.5 VqEN096G96
         K16N33J  C2016 07 12.39114 17 11 19.20 +08 04 35.3          19.4 VqEN096G96
         K16N33J  C2016 07 12.39871 17 11 22.10 +08 06 09.1          20.0 VqEN096G96
         K16N33J  C2016 07 12.40630 17 11 25.05 +08 07 42.8          19.2 VqEN096G96
         K16N33J  C2016 07 12.41463 17 11 28.24 +08 09 24.6          20.1 VqEN096G96
         K16N33J KC2016 07 12.90310 17 15 02.88 +09 50 13.3          20.2 RoEN096461
         K16N33J KC2016 07 12.90858 17 15 04.78 +09 51 20.8          20.1 RoEN096461
         K16N33J KC2016 07 13.05353 17 15 59.73 +10 21 16.2          20.6 RqEN096104
         K16N33J KC2016 07 13.06439 17 16 04.00 +10 23 29.4          20.6 RqEN096104
         K16N33J KC2016 07 13.06594 17 16 04.63 +10 23 47.9          20.1 RqEN096104
         K16N33J KC2016 07 13.20044117 17 08.66 +10 52 02.2          20.1 VuEN096H21
         K16N33J KC2016 07 13.20474717 17 10.19 +10 52 55.4          20.6 VuEN096H21
         K16N33J KC2016 07 13.20905017 17 11.70 +10 53 48.1          20.4 VuEN096H21
         K16N33J KC2016 07 13.21336017 17 13.24 +10 54 41.1          20.1 VuEN096H21
         K16N33J KC2016 07 13.21888817 17 15.21 +10 55 48.8          20.5 VuEN096H21
         K16N33J  C2016 07 13.27449 17 17 39.02 +11 07 40.2          19.9 VqEN096I52
         K16N33J  C2016 07 13.27560 17 17 39.40 +11 07 53.0          18.6 VqEN096I52
         K16N33J  C2016 07 13.27671 17 17 39.83 +11 08 06.9                qEN096I52
         K16N33J  C2016 07 13.27782 17 17 40.19 +11 08 21.2          20.5 VqEN096I52
         K16N33J KC2016 07 14.15784 17 24 05.16 +14 07 02.5          20.1 RqEN096H36
         K16N33J KC2016 07 14.18115 17 24 13.49 +14 11 43.2          19.8 RqEN096H36
         K16N33J KC2016 07 14.19279 17 24 17.62 +14 14 03.7          19.4 RqEN096H36
         K16N33J KC2016 07 14.20142 17 24 20.75 +14 15 47.2          19.5 RqEN096H36
         K16N33J  C2016 07 14.20345 17 24 24.73 +14 16 35.0          20.1 VqEN096G96
         K16N33J  C2016 07 14.21084 17 24 27.36 +14 18 03.6          20.2 VqEN096G96
         K16N33J  C2016 07 14.21827 17 24 29.94 +14 19 33.4          20.7 VqEN096G96
         K16N33J  C2016 07 14.23135 17 24 34.48 +14 22 09.2          19.4 VqEN096I52
         K16N33J  C2016 07 14.23465 17 24 35.70 +14 22 50.2          18.5 VqEN096I52
         K16N33J  C2016 07 14.23680 17 24 36.48 +14 23 16.3          18.6 VqEN096I52
         K16N33J  C2016 07 14.32760 17 25 09.21 +14 41 21.6          18.5 VqEN096I52
         K16N33J  C2016 07 14.32975 17 25 09.89 +14 41 45.3          19.7 VqEN096I52
         K16N33J  C2016 07 14.33191 17 25 10.73 +14 42 10.6          18.8 VqEN096I52
    
    Observer details:
    104 San Marcello Pistoiese.  Observer P. Bacci.  Measurers P. Bacci, L. Tesi,
        G. Fagioli.  0.60-m f/4 reflector + CCD.
    461 University of Szeged, Piszkesteto Stn. (Konkoly).  Observer J. Vinko.
        Measurer K. Sarneczky.  0.60-m Schmidt + CCD.
    G96 Mt. Lemmon Survey.  Observer A. D. Grauer.  Measurers E. J. Christensen,
        D. C. Fuls, A. R. Gibbs, A. D. Grauer, J. A. Johnson, R. A. Kowalski,
        S. M. Larson, G. J. Leonard, R. G. Matheny, R. L. Seaman, F. C. Shelly.
        1.5-m reflector + 10K CCD.
    H21 Astronomical Research Observatory, Westfield.  Observer R. Holmes.
        Measurers S. Foglia, L. Buzzi, T. Linder, R. Holmes.  0.61-m f/4.5
        astrograph + CCD.
    H36 Sandlot Observatory, Scranton.  Observer G. Hug.  0.56-m reflector + CCD.
    I52 Steward Observatory, Mt. Lemmon Station.  Observer R. G. Matheny.
        Measurers E. J. Christensen, D. C. Fuls, A. R. Gibbs, A. D. Grauer,
        J. A. Johnson, R. A. Kowalski, S. M. Larson, G. J. Leonard, R. G. Matheny,
        R. L. Seaman, F. C. Shelly.  1.0-m reflector + CCD.
    
    Orbital elements:
    2016 NJ33                                                Earth MOID = 0.0329 AU
    Epoch 2016 July 31.0 TT = JDT 2457600.5                 MPC
    M   3.02163              (2000.0)            P               Q
    n   0.65576335     Peri.   23.64240     +0.55011785     +0.82714653
    a   1.3121132      Node   279.91786     -0.78357941     +0.46371008
    e   0.2084777      Incl.    6.69763     -0.28874495     +0.31749265
    P   1.50           H   25.1           G   0.15           U   7
    Residuals in seconds of arc
    160712 G96 (0.0   2.2-)   160713 104  0.2+  0.6+    160714 H36  0.0   0.2+
    160712 G96  0.8+  1.0-    160713 H21  0.1-  0.0     160714 H36  0.6+  0.1-
    160712 G96  0.2+  0.1+    160713 H21  0.0   0.3+    160714 G96  0.3-  0.2-
    160712 G96  0.2+  0.3+    160713 H21  0.2-  0.2+    160714 G96  0.1+  0.8-
    160712 G96  0.3-  0.2-    160713 H21  0.0   0.3+    160714 G96  0.4-  0.6-
    160712 G96  0.2-  0.3+    160713 H21  0.1+  0.1+    160714 I52 (1.3-  2.3-)
    160712 G96  0.2+  0.4+    160713 I52  0.6-  0.1-    160714 I52  0.4-  1.0-
    160712 G96  0.6-  0.5-    160713 I52  0.7-  0.9-    160714 I52  0.1-  0.7-
    160712 461  0.8+  0.1+    160713 I52  0.1-  0.6-    160714 I52 (1.6+  2.8+)
    160712 461  0.4-  0.1-    160713 I52  0.5-  0.1+    160714 I52  0.1-  1.1+
    160713 104  0.1+  0.4+    160714 H36  0.7+  0.8+    160714 I52  0.4+  0.9+
    160713 104  0.0   1.0+    160714 H36  0.5+  0.1-
    
    Ephemeris:
    2016 NJ33                a,e,i = 1.31, 0.21, 7                   q = 1.0386
    Date    TT    R. A. (2000) Decl.     Delta      r     Elong.  Phase     V
    2016 06 14    15 19 01.7 -47 27 41   0.08573 1.0866   144.4    33.0    21.3
    ...
    2016 06 29    15 57 09.8 -30 31 09   0.05173 1.0593   144.8    33.6    20.2
    ...
    2016 07 07    16 36 46.7 -10 11 34   0.04052 1.0491   142.4    36.3    19.7
    ...
    2016 07 13    17 15 46.6 +10 12 25   0.03842 1.0436   134.1    44.4    19.8
    2016 07 14    17 22 54.8 +13 36 40   0.03869 1.0429   132.2    46.2    19.9
    2016 07 15    17 30 11.4 +16 55 25   0.03914 1.0422   130.4    48.0    20.0
    ...
    2016 07 21    18 15 41.1 +33 38 41   0.04491 1.0394   120.2    57.6    20.5
    ...
    2016 07 29    19 15 07.0 +46 32 59   0.05802 1.0388   112.3    64.7    21.3
    ...
    2016 08 13    20 41 17.8 +53 55 11   0.08805 1.0473   110.6    64.9    22.2
    
    A. U. Tomatic                (C) Copyright 2016 MPC           M.P.E.C. 2016-N96
    

    Read MPEC 2016-N95 Read MPEC 2016-N97


    MPEC number:

    Enter an MPEC number in one of the following forms:

    • 1997-B01 (the full form)
    • J97B01 (the packed version of the full form)
    • B01 (the abbreviated form)